Hourly Data Report for September 06, 2017

All times are specified in Local Standard Time (LST). Add 1 hour to adjust for Daylight Saving Time where and when it is observed.

QIKIQTARJUAQ A
NUNAVUT

67°32'48.000" N
64°01'54.000" W
5.50 m
2400577
YVM

Download Data

Hourly Data (September 2017)
Hourly Data Report for September 6, 2017
Temp Definition
°C
Dew Point Temp Definition
°C
Rel Hum Definition
%
Wind Dir Definition
10's deg

Wind Spd Definition
km/h
Visibility Definition
km
Stn Press Definition
kPa
Hmdx Definition


Wind Chill Definition


Weather Definition


TIME
00:00 Legend Double Dagger 1.7 -1.2 81   0 16.1 100.79     LegendNANA
01:00 Legend Double Dagger 1.7 -1.6 79 3 8 16.1 100.81     LegendNANA
02:00 Legend Double Dagger 1.3 -1.9 79 6 8 16.1 100.79     LegendNANA
03:00 Legend Double Dagger 1.3 -1.9 79 2 5 16.1 100.80     LegendNANA
04:00 Legend Double Dagger 1.1 -1.2 85 5 4 16.1 100.82     LegendNANA
05:00 Legend Double Dagger 1.4 -1.6 80 1 5 16.1 100.84     LegendNANA
06:00 Legend Double Dagger 1.4 -1.7 80   0 16.1 100.85     LegendNANA
07:00 Legend Double Dagger 1.5 -1.4 81 5 8 16.1 100.89     LegendNANA
08:00 Legend Double Dagger 1.7 -1.2 81 1 5 16.1 100.89     LegendNANA
09:00 Legend Double Dagger 2.4 -1.7 74 3 11 16.1 100.89     LegendNANA
10:00 Legend Double Dagger 2.2 -1.6 76 36 9 16.1 100.90     LegendNANA
11:00 Legend Double Dagger 2.1 -1.8 75 1 13 16.1 100.92     LegendNANA
12:00 Legend Double Dagger 2.2 -1.9 74 2 13 16.1 100.93     LegendNANA
13:00 Legend Double Dagger 2.2 -1.9 74 1 11 16.1 100.97     LegendNANA
14:00 Legend Double Dagger 2.1 -2.0 75 3 13 16.1 101.00     LegendNANA
15:00 Legend Double Dagger 2.2 -1.9 75 3 11 16.1 101.06     LegendNANA
16:00 Legend Double Dagger 2.1 -1.3 78 2 13 16.1 101.10     LegendNANA
17:00 Legend Double Dagger 2.1 -1.7 76 2 13 16.1 101.11     LegendNANA
18:00 Legend Double Dagger 1.9 -1.0 81 2 11 16.1 101.15     LegendNANA
19:00 Legend Double Dagger 1.2 -0.6 88   0 16.1 101.18     LegendNANA
20:00 Legend Double Dagger 1.0 -0.7 89 9 4 16.1 101.20     LegendNANA
21:00 Legend Double Dagger 1.2 -0.4 89 8 8 16.1 101.22     LegendNANA
22:00 Legend Double Dagger 0.6 -1.0 89   0 16.1 101.22     LegendNANA
23:00 Legend Double Dagger 0.4 -0.9 91   0 16.1 101.26     LegendNANA

Notes on Data Quality.

Legend

  • E = Estimated
  • M = Missing
  • NA = Not Available
  • ‡ = Partner data that is not subject to review by the National Climate Archives
Date modified: